Regional Weather Roundup
Issued by NWS

Home | Current Version | Previous Version | Graphics & Text | Print | Product List | Glossary On
Versions: 1 2 3 4 5 6 7 8 9 10 11 12 13 14 15 16 17 18 19 20 21 22 23 24 25 26 27 28 29 30 31 32 33 34 35 36 37 38 39 40 41 42 43 44 45 46 47 48 49 50
000
ASUS45 KTFX 220119
RWRMT
MONTANA HOURLY WEATHER ROUNDUP
NATIONAL WEATHER SERVICE GREAT FALLS MT
719 PM MDT MON JUL 21 2014

NOTE: "FAIR" INDICATES FEW OR NO CLOUDS BELOW 12000 FEET WITH NO
SIGNIFICANT WEATHER AND/OR OBSTRUCTIONS TO VISIBILITY.

* THESE STATIONS ARE NOT UNDER NWS QUALITY CONTROL. THEY DO NOT
   REPORT WEATHER SUCH AS PRECIPITATION OR FOG.

MTZ001>007-043-220200-
WEST OF THE DIVIDE
CITY           SKY/WX    TMP DP  RH WIND       PRES   REMARKS
KALISPELL      PTCLDY    81  37  21 SW9       29.97S
MISSOULA       PTCLDY    81  28  14 NW13      29.99R
BUTTE          CLOUDY    73  46  38 CALM      30.10S
MULLAN PASS    CLOUDY    61  37  41 VRB3      30.16S
* ESSEX        N/A       72  47  41 N/A        N/A
* LINCOLN      N/A       78  41  27 W6G16      N/A
* LOOKOUT PASS N/A       67  36  32 NW3G9      N/A
* POLSON       N/A       78  38  24 SW2G9      N/A
* RONAN APT    PTCLDY    79  41  26 N/A        N/A
* SEELEY LAKE  N/A       78  30  17 NW6G14     N/A
* THOMP F APT  CLOUDY    74  40  29 S7G16      N/A
* YAAK HILL    N/A       78  40  26 SW1G6      N/A
$$

MTZ008-052>055-220200-
SOUTHWEST MONTANA
CITY           SKY/WX    TMP DP  RH WIND       PRES   REMARKS
BOZEMAN        CLOUDY    73  54  51 N6        30.04R
DILLON         CLOUDY    73  48  41 SW12      30.07S
* THREE FORKS  MOCLDY    75  63  66 N/A        N/A
* BOULDER HILL N/A       73  43  34 VRB2       N/A
* MONIDA PASS  N/A       71  42  35 W13        N/A
* RAYNOLDS PAS N/A       74  14  10 NW2        N/A
* WHITEHALL    N/A       68  55  63 S7G15      N/A
* WISE RIVER   N/A       70  55  59 NE4        N/A
$$

MTZ009>010-012-014-046-048-049-054-220200-
EAST SLOPES AND CENTRAL MONTANA
CITY           SKY/WX    TMP DP  RH WIND       PRES   REMARKS
CUT BANK       PTCLDY    77  37  24 W12       30.01R
GREAT FALLS    CLEAR     81  41  24 NW10      29.98R
HELENA         PTCLDY    82  46  28 N10       29.97R
MALMSTROM AFB  PTCLDY    81  41  24 NW8G20    29.99R
* CONRAD       PTCLDY    77  46  33 W6         N/A
* DEARBORN     N/A       83  35  18 S12G17     N/A
* EAST GLACIER N/A       70  40  34 W9         N/A
* MONARCH      N/A       74  37  26 NW16G22    N/A
* PENDROY      N/A       73  36  26 NW9        N/A
* ROGERS PASS  N/A       73  33  23 E1G12      N/A
* SAINT MARY   N/A       72  37  28 SW6G15     N/A
* SWEET GRASS  N/A       74  49  41 NE12       N/A
* WHITE SULPH  N/A       69  54  59 S8G13      N/A
$$

MTZ011-013-016-021-035-040-045-047-050-051-220200-
NORTH CENTRAL MONTANA
CITY           SKY/WX    TMP DP  RH WIND       PRES   REMARKS
HAVRE          CLEAR     81  52  37 N13       29.94R
LEWISTOWN      MOCLDY    73  57  57 E6        30.03R
* FORT BENTON  CLEAR     82  43  25 NW9       29.95R
* CHESTER      N/A       79  41  26 NW7        N/A
* DENTON       N/A       77  52  42 S6         N/A
* GEYSER       N/A       79  45  30 NW18       N/A
* JUDITH GAP   N/A       66  59  78 SE6        N/A
* LOMA         N/A       83  46  27 NW12G20    N/A
$$

MTZ017>020-022>027-061-062-220200-
NORTHEAST MONTANA
CITY           SKY/WX    TMP DP  RH WIND       PRES   REMARKS
GLASGOW        CLOUDY    79  52  39 NW5       29.93S
GLENDIVE       PTCLDY    79  54  42 N12       29.95R
JORDAN         CLOUDY    79  52  39 NE6       29.95S
SIDNEY         PTCLDY    73  61  66 N8        29.96R
WOLF POINT     CLOUDY    79  61  54 E10       29.94R
* BEAVER HILL  N/A       76  55  48 NE18       N/A
* CIRCLE       N/A       75  61  62 NE5G11     N/A
* LINDSAY DVD  N/A       74  57  55 NE11G16    N/A
* NAVAJO       N/A       70  61  73 SE8        N/A
$$

MTZ028>042-056>058-220200-
SOUTHCENTRAL AND SOUTHEAST MONTANA
CITY           SKY/WX    TMP DP  RH WIND       PRES   REMARKS
BAKER          CLEAR     81  57  44 N17       29.95R HI  81
BILLINGS       CLOUDY    72  52  49 N16       30.04R
LIVINGSTON     CLOUDY    73  50  44 NW13      30.05S
MILES CITY     PTCLDY    84  54  36 N7        29.92R
* LAUREL APT   CLOUDY    72  48  43 NW5        N/A
* ROUNDUP APT  CLOUDY    63  55  75 N/A        N/A
* ALZADA       N/A       87  52  30 NW14       N/A
* HYSHAM       N/A       77  54  45 NW1        N/A
* LAME DEER    N/A       80  54  41 NW12G17    N/A   HI  80
* REED POINT   N/A       74  55  52 E6         N/A
* ROSCOE HILL  N/A       67  45  45 S8G23      N/A
$$

REGIONAL REPORTS...DAKOTAS
CITY           SKY/WX    TMP DP  RH WIND       PRES   REMARKS
WILLISTON      CLOUDY    77  59  54 NE10      29.91R
DICKINSON      CLOUDY    70  63  79 N23G31    29.91R
CROSBY         MOCLDY    68  68 100 CALM      29.94R
TIOGA          PTCLDY    66  66 100 NE8       29.95R
WATFORD CITY   FAIR      72  64  76 E13       29.91R
BISMARCK       LGT RAIN  66  63  90 NE7       29.79R
GRAND FORKS    TSTM      70  68  93 NW48G69   29.63R VSB M1/4
FARGO          CLOUDY    86  75  70 SE15      29.64F HI  95
BUFFALO SD     CLEAR     82  61  49 N21       29.86R HI  83
RAPID CITY     PTCLDY    82  57  43 N12       29.88R HI  82
$$

REGIONAL REPORTS...WYOMING/IDAHO/WASHINGTON
CITY           SKY/WX    TMP DP  RH WIND       PRES   REMARKS
GILLETTE       PTCLDY    82  46  28 N9        30.00R
SHERIDAN       TSTM      77  57  50 W12       30.03R
CODY           MOCLDY    75  50  42 NW12G23   30.14R
YELLOWSTONE LA CLOUDY    52  46  80 CALM      30.35R
SALMON         MOCLDY    79  46  31 S14       29.98R
MULLAN PASS    CLOUDY    61  37  41 VRB3      30.16S
SAND POINT     CLOUDY    72  46  40 SW3       30.01S
SPOKANE        CLOUDY    75  36  24 SW5       29.99S
$$

REGIONAL REPORTS...ALBERTA
CITY           SKY/WX    TMP DP  RH WIND       PRES   REMARKS
CALGARY        FAIR      66  50  56 NE5       30.03R
LETHBRIDGE     FAIR      70  55  59 NE13      30.01R
MEDICINE HAT   FAIR      72  50  46 NE9       30.00R
EDMONTON       PTCLDY    72  48  43 SW5       29.98R
WATERTON GATE  N/A       66  54  65 NE10       N/A
CARDSTON       N/A       70  57  64 NE10       N/A
MILK RIVER     N/A       70  52  53 NE13       N/A
$$

REGIONAL REPORTS...SASKATCHEWAN
CITY           SKY/WX    TMP DP  RH WIND       PRES   REMARKS
SWIFT CURRENT  CLEAR     64  61  90 N9        29.96R
REGINA         MOCLDY    68  55  63 VRB2      29.95R
VAL MARIE      N/A       75  55  50 W3         N/A
ASSINIBOIA     N/A       68  61  78 E5         N/A
CORONACH       N/A       72  59  64 SE3        N/A

$$



USA.gov is the U.S. government's official web portal to all federal, state and local government web resources and services.